ATLAS 5 CENTAUR DEB, 44664

Orbit data source: Space-Track

ATLAS 5 CENTAUR DEB, 44664 is space debris in HEO originally from a launch on Wed, 17 Oct 2018 UTC launched from the Air Force Eastern Test Range (AFETR). Debris objects in space refer to the collection of defunct objects orbiting the Earth. Examples of debris include non-operational satellites, rocket bodies, and fragments generated from explosions, collisions, or faulty payload assembly.

Loading next visibility...
Identifier
44664, 2018-079AA
Orbit
HEO
Last TLE update
10 months ago
Origin
Flag of USUnited Launch Alliance/Lockheed Martin (US)
Manufacturer
ULA Decatur
Mission
Spacecraft
Bus & Motor
Unknown
Mass
Unknown
Launch date (UTC)
2018-10-17 (7 years ago)
Launch vehicle
Unknown
Launch site
Air Force Eastern Test Range (AFETR)
Object type
Payload
Rocket body
Debris
Shape & HBR
Unknown
Radar Cross Section
RCS unknown

Expand to show TLE details & history

TLE from 10 months ago
0 ATLAS 5 CENTAUR DEB
1 44664U 18079AA  24190.17350872 -.00000110  00000-0  00000-0 0  9991
2 44664  10.2312 125.1662 5129895 148.4729 256.1913  1.69334433 17227
Epoch: 2024-07-08T04:09Z
TLE epoch observation values (Epoch: 2024-07-08T04:09:51.153Z)
Latitude
0.00001°
Longitude
135.95587°
Altitude
32,616.813 km
Speed
2.653 km/s
True Right ascension
08h 20m 07s
True Declination
0° 00' 00"
Sunlit
Object was in daylight at epoch
Visualization orbit readout
Latitude
7.85502°
Longitude
149.90735°
Altitude
35,514.585 km
Speed
2.372 km/s
Apparent Right ascension
09h 11m 39s
Apparent Declination
2° 02' 17"
Sunlit
Object is in daylight
Visualization observer readout
Local Sidereal Time
20:35:21
Azimuth
346.579° N
Elevation
-47.23°
Doppler factor
1
Orbital elements
Apogee altitude
38,610.941 km
Perigee altitude
8,103.228 km
Semi-major axis
29,735.221 km
Eccentricity
0.51299
Inclination
10.2312°
RAAN
125.1662°
Arg. of periapsis
148.4729°
True anomaly
Unknown
Mean anomaly
256.1913°
Eccentric anomaly
Unknown
Mean motion
0.42329 °/min
Orbital period
850.48 mins
BSTAR
0
Loading maneuver chart data...
Loading SW <> Apogee altitude chart data...

ATLAS 5 CENTAUR DEB Visibility forecast

Observer location: undefined°, undefined°

Span
Click to sort rows by Start time (UTC) header in descending order
Start Az.
Max El. time (UTC)
Max El. Az.
Max El.
End time (UTC)
End Az.
783 mins2025-05-19 17:34:13.495Z217.585° SW2025-05-20 05:26:13.495Z200.427° SSW36.903°2025-05-20 06:37:13.495Z126.177° SE
|